Time,TemperatureF,DewpointF,PressureIn,WindDirection,WindDirectionDegrees,WindSpeedMPH,WindSpeedGustMPH,Humidity,HourlyPrecipIn,Conditions,Clouds,dailyrainin,SoftwareType,DateUTC
2013-08-18 00:03:00,62.6,33.8,30.09,NNE,27,1.0,2.0,34,0.00,CLR,CLR,0.00,WeatherDisplay:10.37,2013-08-18 04:03:00,
2013-08-18 00:18:00,62.2,34.2,30.09,NNE,32,0.0,2.0,35,0.00,CLR,CLR,0.00,WeatherDisplay:10.37,2013-08-18 04:18:00,
2013-08-18 00:33:00,62.1,34.1,30.12,NE,45,0.0,2.0,35,0.00,CLR,CLR,0.00,WeatherDisplay:10.37,2013-08-18 04:33:00,
2013-08-18 00:48:00,61.7,33.7,30.12,NE,35,0.0,1.0,35,0.00,CLR,CLR,0.00,WeatherDisplay:10.37,2013-08-18 04:48:00,
2013-08-18 01:03:00,61.3,34.1,30.12,North,0,0.0,0.0,36,0.00,CLR,CLR,0.00,WeatherDisplay:10.37,2013-08-18 05:03:00,
2013-08-18 01:18:00,61.3,34.8,30.12,NNE,15,1.0,2.0,37,0.00,CLR,CLR,0.00,WeatherDisplay:10.37,2013-08-18 05:18:00,
2013-08-18 01:33:00,61.2,35.3,30.12,NNE,33,0.0,2.0,38,0.00,CLR,CLR,0.00,WeatherDisplay:10.37,2013-08-18 05:33:00,
2013-08-18 01:48:00,61.3,38.0,30.12,NNE,26,2.0,3.0,42,0.00,CLR,CLR,0.00,WeatherDisplay:10.37,2013-08-18 05:48:00,
2013-08-18 02:03:00,61.2,36.0,30.12,NNE,22,0.0,2.0,39,0.00,CLR,CLR,0.00,WeatherDisplay:10.37,2013-08-18 06:03:00,
2013-08-18 02:18:00,61.3,35.5,30.12,NNE,22,0.0,1.0,38,0.00,CLR,CLR,0.00,WeatherDisplay:10.37,2013-08-18 06:18:00,
2013-08-18 02:33:00,61.9,36.6,30.15,NNE,22,0.0,1.0,39,0.00,CLR,CLR,0.00,WeatherDisplay:10.37,2013-08-18 06:33:00,
2013-08-18 02:34:00,62.8,61.3,30.15,NW,324,0.0,2.0,95,0.00,CLR,CLR,0.00,WeatherDisplay:10.37,2013-08-18 06:34:00,
2013-08-18 02:35:00,62.8,61.3,30.15,NW,324,0.0,0.0,95,0.00,CLR,CLR,0.00,WeatherDisplay:10.37,2013-08-18 06:35:00,
2013-08-18 02:36:00,62.8,61.3,30.15,NW,324,0.0,0.0,95,0.00,CLR,CLR,0.00,WeatherDisplay:10.37,2013-08-18 06:36:00,
2013-08-18 02:37:00,62.8,61.3,30.15,NW,324,0.0,0.0,95,0.00,CLR,CLR,0.00,WeatherDisplay:10.37,2013-08-18 06:37:00,
2013-08-18 02:38:00,62.8,61.3,30.15,NW,324,0.0,0.0,95,0.00,CLR,CLR,0.00,WeatherDisplay:10.37,2013-08-18 06:38:00,
2013-08-18 02:39:00,62.8,61.3,30.15,NW,324,0.0,0.0,95,0.00,CLR,CLR,0.00,WeatherDisplay:10.37,2013-08-18 06:39:00,
2013-08-18 02:40:00,62.8,61.3,30.15,NW,324,0.0,0.0,95,0.00,CLR,CLR,0.00,WeatherDisplay:10.37,2013-08-18 06:40:00,
2013-08-18 02:41:00,62.8,61.3,30.15,NW,324,0.0,0.0,95,0.00,CLR,CLR,0.00,WeatherDisplay:10.37,2013-08-18 06:41:00,
2013-08-18 02:42:00,62.8,61.3,30.15,NW,324,0.0,0.0,95,0.00,CLR,CLR,0.00,WeatherDisplay:10.37,2013-08-18 06:42:00,
2013-08-18 02:43:00,62.8,61.3,30.15,NW,324,0.0,0.0,95,0.00,CLR,CLR,0.00,WeatherDisplay:10.37,2013-08-18 06:43:00,
2013-08-18 02:44:00,62.8,61.3,30.15,NW,324,0.0,0.0,95,0.00,CLR,CLR,0.00,WeatherDisplay:10.37,2013-08-18 06:44:00,
2013-08-18 02:45:00,62.8,61.3,30.15,NW,324,0.0,0.0,95,0.00,CLR,CLR,0.00,WeatherDisplay:10.37,2013-08-18 06:45:00,
2013-08-18 02:46:00,62.8,61.3,30.15,NW,324,0.0,0.0,95,0.00,CLR,CLR,0.00,WeatherDisplay:10.37,2013-08-18 06:46:00,
2013-08-18 02:47:00,62.8,61.3,30.15,NW,324,0.0,0.0,95,0.00,CLR,CLR,0.00,WeatherDisplay:10.37,2013-08-18 06:47:00,
2013-08-18 02:48:00,62.8,61.3,30.15,NW,324,0.0,0.0,95,0.00,CLR,CLR,0.00,WeatherDisplay:10.37,2013-08-18 06:48:00,
2013-08-18 07:42:00,62.4,61.3,30.15,NE,45,3.1,3.1,96,0.00,CLR,,0.00,WeatherDisplay:10.37,2013-08-18 11:42:00,
2013-08-18 07:43:00,62.4,61.3,30.15,North,0,2.3,0.0,96,0.00,CLR,,0.00,WeatherDisplay:10.37,2013-08-18 11:43:00,
2013-08-18 07:44:00,62.4,61.3,30.15,West,270,2.3,0.0,96,0.00,BKN,,0.00,WeatherDisplay:10.37,2013-08-18 11:44:00,
2013-08-18 07:49:00,63.0,61.5,30.15,West,270,0.9,0.0,95,0.00,CLR,,0.00,WeatherDisplay:10.37,2013-08-18 11:49:00,
2013-08-18 07:54:00,63.1,61.7,30.15,West,270,0.0,0.0,95,0.00,CLR,,0.00,WeatherDisplay:10.37,2013-08-18 11:54:00,
2013-08-18 07:59:00,63.5,62.0,30.15,West,270,0.0,0.0,95,0.00,CLR,,0.00,WeatherDisplay:10.37,2013-08-18 11:59:00,
2013-08-18 08:04:00,63.9,62.1,30.15,West,270,0.0,0.0,94,0.00,CLR,,0.00,WeatherDisplay:10.37,2013-08-18 12:04:00,
2013-08-18 08:10:00,64.2,62.5,30.15,SW,225,0.0,0.0,94,0.00,CLR,,0.00,WeatherDisplay:10.37,2013-08-18 12:10:00,
2013-08-18 08:15:00,64.6,62.5,30.15,SW,225,0.0,0.0,93,0.00,CLR,,0.00,WeatherDisplay:10.37,2013-08-18 12:15:00,
2013-08-18 08:20:00,64.9,62.6,30.15,SW,225,0.0,0.0,92,0.00,CLR,,0.00,WeatherDisplay:10.37,2013-08-18 12:20:00,
2013-08-18 08:25:00,65.3,62.9,30.15,SW,225,0.0,0.0,92,0.00,CLR,,0.00,WeatherDisplay:10.37,2013-08-18 12:25:00,
2013-08-18 08:30:00,65.7,63.0,30.15,SW,225,0.0,0.0,91,0.00,CLR,,0.00,WeatherDisplay:10.37,2013-08-18 12:30:00,
2013-08-18 08:35:00,65.8,62.8,30.15,SW,225,0.0,0.0,90,0.00,OVC,,0.00,WeatherDisplay:10.37,2013-08-18 12:35:00,
2013-08-18 08:40:00,65.8,62.8,30.15,SW,225,0.0,0.0,90,0.00,OVC,,0.00,WeatherDisplay:10.37,2013-08-18 12:40:00,
2013-08-18 08:45:00,66.0,63.0,30.15,SW,225,0.0,0.0,90,0.00,OVC,,0.00,WeatherDisplay:10.37,2013-08-18 12:45:00,
2013-08-18 08:50:00,66.2,62.9,30.15,SW,225,0.0,0.0,89,0.00,OVC,,0.00,WeatherDisplay:10.37,2013-08-18 12:50:00,
2013-08-18 08:55:00,66.4,63.0,30.15,NE,45,0.0,0.0,89,0.00,OVC,,0.00,WeatherDisplay:10.37,2013-08-18 12:55:00,
2013-08-18 09:00:00,66.9,63.6,30.15,East,90,0.0,0.0,89,0.00,OVC,,0.00,WeatherDisplay:10.37,2013-08-18 13:00:00,
2013-08-18 09:05:00,67.1,63.4,30.15,East,90,0.0,0.0,88,0.00,OVC,,0.00,WeatherDisplay:10.37,2013-08-18 13:05:00,
2013-08-18 09:10:00,67.3,63.6,30.15,South,180,1.6,0.0,88,0.00,OVC,,0.00,WeatherDisplay:10.37,2013-08-18 13:10:00,
2013-08-18 09:15:00,67.5,63.8,30.15,SW,225,1.2,1.2,88,0.00,OVC,,0.00,WeatherDisplay:10.37,2013-08-18 13:15:00,
2013-08-18 09:20:00,68.0,64.0,30.18,SW,225,0.0,0.0,87,0.00,OVC,,0.00,WeatherDisplay:10.37,2013-08-18 13:20:00,
2013-08-18 09:25:00,67.8,63.1,30.18,SW,225,1.2,1.2,85,0.00,OVC,,0.00,WeatherDisplay:10.37,2013-08-18 13:25:00,
2013-08-18 09:30:00,68.2,63.8,30.18,SW,225,1.2,1.2,86,0.00,OVC,,0.00,WeatherDisplay:10.37,2013-08-18 13:30:00,
2013-08-18 09:35:00,68.4,64.3,30.18,West,270,1.2,1.2,87,0.00,OVC,,0.00,WeatherDisplay:10.37,2013-08-18 13:35:00,
2013-08-18 09:40:00,68.5,64.5,30.18,SW,225,2.3,2.3,87,0.00,OVC,,0.00,WeatherDisplay:10.37,2013-08-18 13:40:00,
2013-08-18 09:45:00,68.9,64.9,30.18,SW,225,1.4,1.4,87,0.00,OVC,,0.00,WeatherDisplay:10.37,2013-08-18 13:45:00,
2013-08-18 09:50:00,69.4,65.1,30.18,South,180,1.2,0.0,86,0.00,OVC,,0.00,WeatherDisplay:10.37,2013-08-18 13:50:00,
2013-08-18 09:55:00,70.0,64.9,30.18,SE,135,2.3,0.0,84,0.00,OVC,,0.00,WeatherDisplay:10.37,2013-08-18 13:55:00,
2013-08-18 10:00:00,70.3,64.2,30.18,SW,225,1.4,0.0,81,0.00,OVC,,0.00,WeatherDisplay:10.37,2013-08-18 14:00:00,
2013-08-18 10:05:00,70.7,64.6,30.18,SW,225,1.2,1.2,81,0.00,OVC,,0.00,WeatherDisplay:10.37,2013-08-18 14:05:00,
2013-08-18 10:10:00,70.3,63.9,30.18,SW,225,2.3,2.3,80,0.00,OVC,,0.00,WeatherDisplay:10.37,2013-08-18 14:10:00,
2013-08-18 10:15:00,70.9,64.4,30.18,SW,225,1.2,1.2,80,0.00,OVC,,0.00,WeatherDisplay:10.37,2013-08-18 14:15:00,
2013-08-18 10:20:00,71.1,64.2,30.18,SE,135,1.2,1.2,79,0.00,OVC,,0.00,WeatherDisplay:10.37,2013-08-18 14:20:00,
2013-08-18 10:25:00,71.2,64.4,30.18,SSW,202,2.3,2.3,79,0.00,OVC,,0.00,WeatherDisplay:10.37,2013-08-18 14:25:00,
2013-08-18 10:30:00,71.4,64.9,30.18,SW,225,3.1,3.1,80,0.00,OVC,,0.00,WeatherDisplay:10.37,2013-08-18 14:30:00,
2013-08-18 10:35:00,71.1,64.2,30.18,SW,225,2.3,2.3,79,0.00,OVC,,0.00,WeatherDisplay:10.37,2013-08-18 14:35:00,
2013-08-18 10:40:00,71.4,64.6,30.18,East,90,2.3,0.0,79,0.00,OVC,,0.00,WeatherDisplay:10.37,2013-08-18 14:40:00,
2013-08-18 10:45:00,72.1,64.9,30.18,South,180,2.3,2.4,78,0.00,OVC,,0.00,WeatherDisplay:10.37,2013-08-18 14:45:00,
2013-08-18 10:50:00,72.9,65.6,30.18,SW,225,2.3,2.3,78,0.00,OVC,,0.00,WeatherDisplay:10.37,2013-08-18 14:50:00,
2013-08-18 10:55:00,73.6,65.9,30.18,South,180,3.5,3.5,77,0.00,OVC,,0.00,WeatherDisplay:10.37,2013-08-18 14:55:00,
2013-08-18 11:00:00,74.3,66.6,30.18,NE,45,2.3,2.3,77,0.00,OVC,,0.00,WeatherDisplay:10.37,2013-08-18 15:00:00,
2013-08-18 11:05:00,75.0,66.9,30.18,SW,225,0.0,0.0,76,0.00,OVC,,0.00,WeatherDisplay:10.37,2013-08-18 15:05:00,
2013-08-18 11:10:00,74.3,66.2,30.18,West,270,3.5,3.5,76,0.00,OVC,,0.00,WeatherDisplay:10.37,2013-08-18 15:10:00,
2013-08-18 11:15:00,74.8,66.8,30.18,West,270,1.2,0.0,76,0.00,OVC,,0.00,WeatherDisplay:10.37,2013-08-18 15:15:00,
2013-08-18 11:20:00,75.7,67.2,30.18,SW,225,1.6,0.0,75,0.00,SCT,,0.00,WeatherDisplay:10.37,2013-08-18 15:20:00,
2013-08-18 11:25:00,75.4,66.1,30.18,WSW,248,2.6,2.6,73,0.00,SCT,,0.00,WeatherDisplay:10.37,2013-08-18 15:25:00,
2013-08-18 11:30:00,75.4,66.1,30.18,SW,225,1.2,0.0,73,0.00,SCT,,0.00,WeatherDisplay:10.37,2013-08-18 15:30:00,
2013-08-18 11:35:00,75.2,65.9,30.15,WSW,248,3.5,3.5,73,0.00,SCT,,0.00,WeatherDisplay:10.37,2013-08-18 15:35:00,
2013-08-18 11:40:00,77.4,68.0,30.15,WSW,248,2.2,2.2,73,0.00,SCT,,0.00,WeatherDisplay:10.37,2013-08-18 15:40:00,
2013-08-18 11:45:00,77.2,67.9,30.15,WSW,248,2.3,2.3,73,0.00,SCT,,0.00,WeatherDisplay:10.37,2013-08-18 15:45:00,
2013-08-18 11:50:00,77.2,67.9,30.18,WSW,248,3.1,3.1,73,0.00,SCT,,0.00,WeatherDisplay:10.37,2013-08-18 15:50:00,
2013-08-18 11:55:00,77.5,67.0,30.18,West,270,2.4,2.4,70,0.00,SCT,,0.00,WeatherDisplay:10.37,2013-08-18 15:55:00,
2013-08-18 12:00:00,78.4,67.8,30.18,South,180,2.3,2.3,70,0.00,SCT,,0.00,WeatherDisplay:10.37,2013-08-18 16:00:00,
2013-08-18 12:05:00,78.8,68.2,30.18,South,180,1.6,1.6,70,0.00,BKN,,0.00,WeatherDisplay:10.37,2013-08-18 16:05:00,
2013-08-18 12:10:00,78.4,67.8,30.18,South,180,1.2,0.0,70,0.00,BKN,,0.00,WeatherDisplay:10.37,2013-08-18 16:10:00,
2013-08-18 12:16:00,78.3,67.7,30.18,SE,135,1.4,1.4,70,0.00,BKN,,0.00,WeatherDisplay:10.37,2013-08-18 16:16:00,
2013-08-18 12:21:00,79.7,69.0,30.18,SE,135,1.4,1.4,70,0.00,BKN,,0.00,WeatherDisplay:10.37,2013-08-18 16:21:00,
2013-08-18 12:26:00,80.4,69.7,30.18,SE,135,1.2,0.0,70,0.00,BKN,,0.00,WeatherDisplay:10.37,2013-08-18 16:26:00,
2013-08-18 12:31:00,79.7,69.0,30.18,SE,135,2.3,0.0,70,0.00,SCT,,0.00,WeatherDisplay:10.37,2013-08-18 16:31:00,
2013-08-18 12:36:00,79.7,69.0,30.18,East,90,0.0,0.0,70,0.00,SCT,,0.00,WeatherDisplay:10.37,2013-08-18 16:36:00,
2013-08-18 12:41:00,79.2,68.5,30.18,WSW,248,2.3,2.3,70,0.00,SCT,,0.00,WeatherDisplay:10.37,2013-08-18 16:41:00,
2013-08-18 12:47:00,79.0,68.4,30.18,SW,225,3.5,3.5,70,0.00,SCT,,0.00,WeatherDisplay:10.37,2013-08-18 16:47:00,
2013-08-18 12:52:00,79.9,69.2,30.18,WNW,292,3.5,3.5,70,0.00,SCT,,0.00,WeatherDisplay:10.37,2013-08-18 16:52:00,
2013-08-18 12:57:00,79.7,69.0,30.18,South,180,2.3,2.6,70,0.00,SCT,,0.00,WeatherDisplay:10.37,2013-08-18 16:57:00,
2013-08-18 13:02:00,81.9,70.7,30.18,SE,135,2.3,2.3,69,0.00,BKN,,0.00,WeatherDisplay:10.37,2013-08-18 17:02:00,
2013-08-18 13:07:00,81.9,70.7,30.18,SW,225,2.0,0.0,69,0.00,BKN,,0.00,WeatherDisplay:10.37,2013-08-18 17:07:00,
2013-08-18 13:12:00,81.9,70.7,30.18,West,270,2.3,2.3,69,0.00,BKN,,0.00,WeatherDisplay:10.37,2013-08-18 17:12:00,
2013-08-18 13:17:00,83.5,72.2,30.18,NE,45,3.5,3.5,69,0.00,BKN,,0.00,WeatherDisplay:10.37,2013-08-18 17:17:00,
2013-08-18 13:22:00,82.9,71.7,30.18,West,270,2.6,2.6,69,0.00,BKN,,0.00,WeatherDisplay:10.37,2013-08-18 17:22:00,
2013-08-18 13:27:00,82.8,71.5,30.18,SW,225,2.3,2.3,69,0.00,BKN,,0.00,WeatherDisplay:10.37,2013-08-18 17:27:00,
2013-08-18 13:32:00,83.8,72.6,30.15,SW,225,2.6,2.6,69,0.00,SCT,,0.00,WeatherDisplay:10.37,2013-08-18 17:32:00,
2013-08-18 13:37:00,81.1,70.0,30.15,West,270,4.6,4.6,69,0.00,SCT,,0.00,WeatherDisplay:10.37,2013-08-18 17:37:00,
2013-08-18 13:42:00,82.4,71.2,30.15,SW,225,3.5,3.5,69,0.00,SCT,,0.00,WeatherDisplay:10.37,2013-08-18 17:42:00,
2013-08-18 13:47:00,82.2,71.0,30.15,SSW,202,1.4,1.4,69,0.00,SCT,,0.00,WeatherDisplay:10.37,2013-08-18 17:47:00,
2013-08-18 13:52:00,80.6,69.5,30.15,SW,225,2.6,2.6,69,0.00,SCT,,0.00,WeatherDisplay:10.37,2013-08-18 17:52:00,
2013-08-18 13:57:00,79.5,68.9,30.15,WSW,248,3.5,3.5,70,0.00,SCT,,0.00,WeatherDisplay:10.37,2013-08-18 17:57:00,
2013-08-18 14:02:00,77.7,67.2,30.15,WSW,248,2.4,2.4,70,0.00,SCT,,0.00,WeatherDisplay:10.37,2013-08-18 18:02:00,
2013-08-18 14:07:00,79.2,68.5,30.15,SW,225,2.3,2.3,70,0.00,SCT,,0.00,WeatherDisplay:10.37,2013-08-18 18:07:00,
2013-08-18 14:12:00,80.8,69.7,30.15,SW,225,2.3,2.3,69,0.00,SCT,,0.00,WeatherDisplay:10.37,2013-08-18 18:12:00,
2013-08-18 14:17:00,82.4,71.2,30.15,SW,225,3.5,3.5,69,0.00,SCT,,0.00,WeatherDisplay:10.37,2013-08-18 18:17:00,
2013-08-18 14:22:00,84.2,72.5,30.15,South,180,2.3,2.3,68,0.00,SCT,,0.00,WeatherDisplay:10.37,2013-08-18 18:22:00,
2013-08-18 14:27:00,85.1,73.3,30.15,South,180,2.6,2.6,68,0.00,SCT,,0.00,WeatherDisplay:10.37,2013-08-18 18:27:00,
2013-08-18 14:32:00,82.4,71.2,30.15,SW,225,5.8,5.8,69,0.00,SCT,,0.00,WeatherDisplay:10.37,2013-08-18 18:32:00,
2013-08-18 14:37:00,85.8,74.0,30.15,SW,225,2.6,2.6,68,0.00,SCT,,0.00,WeatherDisplay:10.37,2013-08-18 18:37:00,
2013-08-18 14:42:00,86.0,74.2,30.15,West,270,2.9,2.9,68,0.00,SCT,,0.00,WeatherDisplay:10.37,2013-08-18 18:42:00,
2013-08-18 14:47:00,87.1,75.2,30.15,South,180,2.3,2.3,68,0.00,SCT,,0.00,WeatherDisplay:10.37,2013-08-18 18:47:00,
2013-08-18 14:52:00,86.4,74.5,30.12,SSW,202,3.5,3.5,68,0.00,SCT,,0.00,WeatherDisplay:10.37,2013-08-18 18:52:00,
2013-08-18 14:57:00,86.9,75.1,30.12,North,0,2.3,2.3,68,0.00,SCT,,0.00,WeatherDisplay:10.37,2013-08-18 18:57:00,
2013-08-18 15:02:00,84.0,72.8,30.12,West,270,2.9,2.9,69,0.00,BKN,,0.00,WeatherDisplay:10.37,2013-08-18 19:02:00,
2013-08-18 15:07:00,87.1,75.2,30.12,NE,45,1.2,0.0,68,0.00,BKN,,0.00,WeatherDisplay:10.37,2013-08-18 19:07:00,
2013-08-18 15:12:00,84.0,72.8,30.12,SW,225,4.9,4.9,69,0.00,BKN,,0.00,WeatherDisplay:10.37,2013-08-18 19:12:00,
2013-08-18 15:17:00,88.0,76.1,30.12,East,90,2.3,2.3,68,0.00,BKN,,0.00,WeatherDisplay:10.37,2013-08-18 19:17:00,
2013-08-18 15:22:00,87.6,75.7,30.12,South,180,3.5,3.5,68,0.00,BKN,,0.00,WeatherDisplay:10.37,2013-08-18 19:22:00,
2013-08-18 15:27:00,86.4,74.5,30.12,SW,225,3.5,3.5,68,0.00,BKN,,0.00,WeatherDisplay:10.37,2013-08-18 19:27:00,
2013-08-18 15:32:00,88.5,76.6,30.12,North,0,2.3,2.3,68,0.00,BKN,,0.00,WeatherDisplay:10.37,2013-08-18 19:32:00,
2013-08-18 15:37:00,89.2,77.3,30.12,SW,225,3.5,3.5,68,0.00,BKN,,0.00,WeatherDisplay:10.37,2013-08-18 19:37:00,
2013-08-18 15:42:00,88.7,76.8,30.12,SE,135,2.3,2.3,68,0.00,BKN,,0.00,WeatherDisplay:10.37,2013-08-18 19:42:00,
2013-08-18 15:47:00,89.8,77.4,30.12,South,180,3.5,3.5,67,0.00,BKN,,0.00,WeatherDisplay:10.37,2013-08-18 19:47:00,
2013-08-18 15:52:00,87.4,75.6,30.09,SW,225,4.6,4.6,68,0.00,BKN,,0.00,WeatherDisplay:10.37,2013-08-18 19:52:00,
2013-08-18 15:57:00,88.5,76.6,30.09,SW,225,3.5,3.5,68,0.00,BKN,,0.00,WeatherDisplay:10.37,2013-08-18 19:57:00,
2013-08-18 16:02:00,88.9,76.9,30.09,SW,225,3.5,3.5,68,0.00,BKN,,0.00,WeatherDisplay:10.37,2013-08-18 20:02:00,
2013-08-18 16:07:00,88.7,76.8,30.12,SSW,202,3.1,3.1,68,0.00,BKN,,0.00,WeatherDisplay:10.37,2013-08-18 20:07:00,
2013-08-18 16:12:00,89.1,77.1,30.12,SW,225,2.3,2.3,68,0.00,BKN,,0.00,WeatherDisplay:10.37,2013-08-18 20:12:00,
2013-08-18 16:17:00,88.5,76.6,30.12,East,90,1.2,1.6,68,0.00,BKN,,0.00,WeatherDisplay:10.37,2013-08-18 20:17:00,
2013-08-18 16:22:00,87.6,75.7,30.15,South,180,2.3,2.3,68,0.00,BKN,,0.00,WeatherDisplay:10.37,2013-08-18 20:22:00,
2013-08-18 16:27:00,87.1,75.2,30.15,SSW,202,0.0,0.0,68,0.00,BKN,,0.00,WeatherDisplay:10.37,2013-08-18 20:27:00,
2013-08-18 16:32:00,85.8,74.0,30.15,South,180,2.3,2.3,68,0.00,BKN,,0.00,WeatherDisplay:10.37,2013-08-18 20:32:00,
2013-08-18 16:37:00,85.6,73.9,30.12,SSW,202,0.0,0.0,68,0.00,BKN,,0.00,WeatherDisplay:10.37,2013-08-18 20:37:00,
2013-08-18 16:42:00,84.9,73.2,30.12,East,90,0.0,0.0,68,0.00,BKN,,0.00,WeatherDisplay:10.37,2013-08-18 20:42:00,
2013-08-18 16:47:00,84.6,72.8,30.12,East,90,0.0,0.0,68,0.00,BKN,,0.00,WeatherDisplay:10.37,2013-08-18 20:47:00,
2013-08-18 16:52:00,84.0,72.8,30.12,East,90,0.0,0.0,69,0.00,BKN,,0.00,WeatherDisplay:10.37,2013-08-18 20:52:00,
2013-08-18 16:57:00,83.7,72.4,30.12,South,180,1.2,0.0,69,0.00,BKN,,0.00,WeatherDisplay:10.37,2013-08-18 20:57:00,
2013-08-18 17:02:00,83.8,72.6,30.12,South,180,0.0,0.0,69,0.00,BKN,,0.00,WeatherDisplay:10.37,2013-08-18 21:02:00,
2013-08-18 17:07:00,83.5,72.2,30.12,South,180,0.0,0.0,69,0.00,BKN,,0.00,WeatherDisplay:10.37,2013-08-18 21:07:00,
2013-08-18 17:12:00,82.4,71.2,30.12,South,180,0.0,0.0,69,0.00,BKN,,0.00,WeatherDisplay:10.37,2013-08-18 21:12:00,
2013-08-18 17:17:00,81.7,70.5,30.12,South,180,4.3,4.3,69,0.00,BKN,,0.00,WeatherDisplay:10.37,2013-08-18 21:17:00,
2013-08-18 17:22:00,80.2,69.6,30.12,South,180,4.6,4.6,70,0.00,BKN,,0.00,WeatherDisplay:10.37,2013-08-18 21:22:00,
2013-08-18 17:27:00,78.3,67.7,30.12,South,180,5.8,5.8,70,0.00,BKN,,0.00,WeatherDisplay:10.37,2013-08-18 21:27:00,
2013-08-18 17:32:00,77.5,67.0,30.12,SSW,202,4.9,4.9,70,0.00,BKN,,0.00,WeatherDisplay:10.37,2013-08-18 21:32:00,
2013-08-18 17:37:00,77.0,66.5,30.12,SW,225,4.6,4.6,70,0.00,BKN,,0.00,WeatherDisplay:10.37,2013-08-18 21:37:00,
2013-08-18 17:42:00,77.2,66.6,30.12,SE,135,2.3,2.3,70,0.00,BKN,,0.00,WeatherDisplay:10.37,2013-08-18 21:42:00,
2013-08-18 17:47:00,77.0,66.5,30.12,SSE,158,4.6,4.6,70,0.00,BKN,,0.00,WeatherDisplay:10.37,2013-08-18 21:47:00,
2013-08-18 17:52:00,77.0,66.5,30.12,South,180,3.5,3.5,70,0.00,BKN,,0.00,WeatherDisplay:10.37,2013-08-18 21:52:00,
2013-08-18 17:57:00,77.5,67.0,30.12,East,90,1.2,0.0,70,0.00,BKN,,0.00,WeatherDisplay:10.37,2013-08-18 21:57:00,
2013-08-18 18:02:00,77.0,66.5,30.12,SW,225,0.0,0.0,70,0.00,BKN,,0.00,WeatherDisplay:10.37,2013-08-18 22:02:00,
2013-08-18 18:07:00,76.3,65.8,30.12,SE,135,1.2,0.0,70,0.00,BKN,,0.00,WeatherDisplay:10.37,2013-08-18 22:07:00,
2013-08-18 18:12:00,75.4,64.9,30.12,SW,225,1.2,0.0,70,0.00,BKN,,0.00,WeatherDisplay:10.37,2013-08-18 22:12:00,
2013-08-18 18:17:00,75.4,64.9,30.12,SW,225,0.0,0.0,70,0.00,BKN,,0.00,WeatherDisplay:10.37,2013-08-18 22:17:00,
2013-08-18 18:22:00,74.1,64.1,30.12,SW,225,2.3,2.3,71,0.00,BKN,,0.00,WeatherDisplay:10.37,2013-08-18 22:22:00,
2013-08-18 18:27:00,74.7,64.6,30.12,SW,225,0.0,0.0,71,0.00,BKN,,0.00,WeatherDisplay:10.37,2013-08-18 22:27:00,
2013-08-18 18:32:00,75.0,65.0,30.12,SSW,202,0.0,0.0,71,0.00,OVC,,0.00,WeatherDisplay:10.37,2013-08-18 22:32:00,
2013-08-18 18:33:00,67.1,39.9,30.12,NE,45,0.0,1.0,37,0.00,CLR,CLR,0.00,WeatherDisplay:10.37,2013-08-18 22:33:00,
2013-08-18 18:37:00,75.0,65.0,30.12,North,0,0.0,0.0,71,0.00,OVC,,0.00,WeatherDisplay:10.37,2013-08-18 22:37:00,
2013-08-18 18:42:00,74.7,64.6,30.12,North,0,1.2,1.2,71,0.00,OVC,,0.00,WeatherDisplay:10.37,2013-08-18 22:42:00,
2013-08-18 18:47:00,74.5,64.5,30.12,NNW,338,1.2,1.2,71,0.00,OVC,,0.00,WeatherDisplay:10.37,2013-08-18 22:47:00,
2013-08-18 18:48:00,67.1,41.3,30.12,NE,36,1.0,2.0,39,0.00,CLR,CLR,0.00,WeatherDisplay:10.37,2013-08-18 22:48:00,
2013-08-18 18:52:00,74.3,64.3,30.12,North,0,0.0,0.0,71,0.00,OVC,,0.00,WeatherDisplay:10.37,2013-08-18 22:52:00,
2013-08-18 18:57:00,74.3,64.3,30.12,NE,45,1.2,1.2,71,0.00,OVC,,0.00,WeatherDisplay:10.37,2013-08-18 22:57:00,
2013-08-18 19:02:00,73.9,63.9,30.12,NE,45,1.4,1.4,71,0.00,BKN,,0.00,WeatherDisplay:10.37,2013-08-18 23:02:00,
2013-08-18 19:03:00,66.7,39.6,30.12,NNE,22,0.0,1.0,37,0.00,CLR,CLR,0.00,WeatherDisplay:10.37,2013-08-18 23:03:00,
2013-08-18 19:07:00,73.8,63.8,30.12,North,0,2.3,2.3,71,0.00,BKN,,0.00,WeatherDisplay:10.37,2013-08-18 23:07:00,
2013-08-18 19:12:00,73.8,63.8,30.12,North,0,1.2,0.0,71,0.00,BKN,,0.00,WeatherDisplay:10.37,2013-08-18 23:12:00,
2013-08-18 19:17:00,73.9,64.7,30.12,North,0,3.5,3.5,73,0.00,BKN,,0.00,WeatherDisplay:10.37,2013-08-18 23:17:00,
2013-08-18 19:18:00,66.4,39.3,30.12,NNE,22,0.0,0.0,37,0.00,CLR,CLR,0.00,WeatherDisplay:10.37,2013-08-18 23:18:00,
2013-08-18 19:22:00,73.9,63.9,30.12,NNE,22,2.3,2.3,71,0.00,BKN,,0.00,WeatherDisplay:10.37,2013-08-18 23:22:00,
2013-08-18 19:27:00,73.8,63.8,30.12,NE,45,1.2,1.2,71,0.00,BKN,,0.00,WeatherDisplay:10.37,2013-08-18 23:27:00,
2013-08-18 19:32:00,73.6,64.4,30.15,NNE,22,2.3,2.3,73,0.00,-RA,,0.00,WeatherDisplay:10.37,2013-08-18 23:32:00,
2013-08-18 19:33:00,66.0,39.7,30.12,NNE,22,0.0,0.0,38,0.00,CLR,CLR,0.00,WeatherDisplay:10.37,2013-08-18 23:33:00,
2013-08-18 19:37:00,73.8,64.6,30.15,North,0,1.2,0.0,73,0.00,-RA,,0.00,WeatherDisplay:10.37,2013-08-18 23:37:00,
2013-08-18 19:42:00,73.8,64.6,30.15,NE,45,1.2,0.0,73,0.00,-RA,,0.00,WeatherDisplay:10.37,2013-08-18 23:42:00,
2013-08-18 19:47:00,73.6,64.4,30.12,NE,45,0.0,0.0,73,0.00,-RA,,0.00,WeatherDisplay:10.37,2013-08-18 23:47:00,
2013-08-18 19:48:00,65.7,39.3,30.12,NNE,22,0.0,0.0,38,0.00,CLR,CLR,0.00,WeatherDisplay:10.37,2013-08-18 23:48:00,
2013-08-18 19:52:00,73.2,64.4,30.12,NE,45,0.0,0.0,74,0.00,-RA,,0.00,WeatherDisplay:10.37,2013-08-18 23:52:00,
2013-08-18 19:57:00,73.2,64.4,30.12,NE,45,0.0,0.0,74,0.00,-RA,,0.00,WeatherDisplay:10.37,2013-08-18 23:57:00,
2013-08-18 20:02:00,73.0,64.3,30.12,NE,45,0.0,0.0,74,0.00,-RA,,0.00,WeatherDisplay:10.37,2013-08-19 00:02:00,
2013-08-18 20:03:00,65.8,43.3,30.09,NNE,22,0.0,0.0,44,0.00,CLR,CLR,0.00,WeatherDisplay:10.37,2013-08-19 00:03:00,
2013-08-18 20:07:00,72.7,63.9,30.12,NE,45,0.0,0.0,74,0.00,-RA,,0.00,WeatherDisplay:10.37,2013-08-19 00:07:00,
2013-08-18 20:12:00,72.3,63.6,30.12,North,0,0.0,0.0,74,0.00,-RA,,0.00,WeatherDisplay:10.37,2013-08-19 00:12:00,
2013-08-18 20:17:00,72.1,64.2,30.12,North,0,0.0,0.0,76,0.00,SCT,,0.00,WeatherDisplay:10.37,2013-08-19 00:17:00,
2013-08-18 20:18:00,65.8,43.3,30.09,NNE,22,1.0,2.0,44,0.00,CLR,CLR,0.00,WeatherDisplay:10.37,2013-08-19 00:18:00,
2013-08-18 20:22:00,71.8,63.8,30.12,North,0,0.0,0.0,76,0.00,SCT,,0.00,WeatherDisplay:10.37,2013-08-19 00:22:00,
2013-08-18 20:27:00,71.4,63.8,30.12,North,0,0.0,0.0,77,0.00,SCT,,0.00,WeatherDisplay:10.37,2013-08-19 00:27:00,
2013-08-18 20:32:00,71.1,63.5,30.15,NNE,22,1.2,0.0,77,0.00,SCT,,0.00,WeatherDisplay:10.37,2013-08-19 00:32:00,
2013-08-18 20:33:00,65.7,41.9,30.12,NNE,22,0.0,0.0,42,0.00,CLR,CLR,0.00,WeatherDisplay:10.37,2013-08-19 00:33:00,
2013-08-18 20:37:00,70.7,63.5,30.15,NE,45,2.3,2.3,78,0.00,SCT,,0.00,WeatherDisplay:10.37,2013-08-19 00:37:00,
2013-08-18 20:42:00,70.5,63.3,30.15,NE,45,2.0,2.0,78,0.00,SCT,,0.00,WeatherDisplay:10.37,2013-08-19 00:42:00,
2013-08-18 20:47:00,70.3,63.2,30.12,NE,45,1.2,1.2,78,0.00,SCT,,0.00,WeatherDisplay:10.37,2013-08-19 00:47:00,
2013-08-18 20:48:00,65.3,41.0,30.09,NNE,22,0.0,0.0,41,0.00,CLR,CLR,0.00,WeatherDisplay:10.37,2013-08-19 00:48:00,
2013-08-18 20:52:00,70.2,63.0,30.12,NNE,22,1.2,1.2,78,0.00,SCT,,0.00,WeatherDisplay:10.37,2013-08-19 00:52:00,
2013-08-18 20:57:00,70.0,63.2,30.12,NNE,22,0.0,0.0,79,0.00,SCT,,0.00,WeatherDisplay:10.37,2013-08-19 00:57:00,
2013-08-18 21:02:00,70.0,63.2,30.12,NE,45,1.2,0.0,79,0.00,SCT,,0.00,WeatherDisplay:10.37,2013-08-19 01:02:00,
2013-08-18 21:03:00,65.1,42.1,30.12,NNE,22,0.0,0.0,43,0.00,CLR,CLR,0.00,WeatherDisplay:10.37,2013-08-19 01:03:00,
2013-08-18 21:07:00,69.8,63.3,30.12,North,0,2.3,2.3,80,0.00,SCT,,0.00,WeatherDisplay:10.37,2013-08-19 01:07:00,
2013-08-18 21:12:00,69.6,63.5,30.12,NE,45,1.2,1.2,81,0.00,SCT,,0.00,WeatherDisplay:10.37,2013-08-19 01:12:00,
2013-08-18 21:17:00,69.6,63.2,30.12,NE,45,0.0,0.0,80,0.00,CLR,,0.00,WeatherDisplay:10.37,2013-08-19 01:17:00,
2013-08-18 21:18:00,65.5,44.1,30.12,NNE,22,0.0,0.0,46,0.00,CLR,CLR,0.00,WeatherDisplay:10.37,2013-08-19 01:18:00,
2013-08-18 21:22:00,69.4,63.4,30.12,SE,135,0.0,0.0,81,0.00,CLR,,0.00,WeatherDisplay:10.37,2013-08-19 01:22:00,
2013-08-18 21:27:00,69.3,63.2,30.12,NE,45,1.2,0.0,81,0.00,CLR,,0.00,WeatherDisplay:10.37,2013-08-19 01:27:00,
2013-08-18 21:32:00,69.1,63.4,30.12,NE,45,1.2,1.2,82,0.00,CLR,,0.00,WeatherDisplay:10.37,2013-08-19 01:32:00,
2013-08-18 21:33:00,65.7,45.4,30.12,NNE,22,0.0,0.0,48,0.00,CLR,CLR,0.00,WeatherDisplay:10.37,2013-08-19 01:33:00,
2013-08-18 21:37:00,68.9,63.5,30.12,NE,45,0.0,0.0,83,0.00,CLR,,0.00,WeatherDisplay:10.37,2013-08-19 01:37:00,
2013-08-18 21:42:00,68.7,64.0,30.12,NNE,22,0.0,0.0,85,0.00,CLR,,0.00,WeatherDisplay:10.37,2013-08-19 01:42:00,
2013-08-18 21:47:00,68.7,64.0,30.12,NNE,22,1.6,0.0,85,0.00,CLR,,0.00,WeatherDisplay:10.37,2013-08-19 01:47:00,
2013-08-18 21:48:00,65.8,45.6,30.12,NNE,22,0.0,0.0,48,0.00,CLR,CLR,0.00,WeatherDisplay:10.37,2013-08-19 01:48:00,
2013-08-18 21:52:00,68.5,64.8,30.12,NNE,22,2.3,2.3,88,0.00,CLR,,0.00,WeatherDisplay:10.37,2013-08-19 01:52:00,
2013-08-18 21:57:00,68.5,64.5,30.12,NNE,22,0.0,0.0,87,0.00,CLR,,0.00,WeatherDisplay:10.37,2013-08-19 01:57:00,
2013-08-18 22:02:00,68.4,64.3,30.12,NNE,22,0.0,0.0,87,0.00,CLR,,0.00,WeatherDisplay:10.37,2013-08-19 02:02:00,
2013-08-18 22:03:00,65.8,45.6,30.12,NNE,22,0.0,0.0,48,0.00,CLR,CLR,0.00,WeatherDisplay:10.37,2013-08-19 02:03:00,
2013-08-18 22:07:00,68.0,64.0,30.12,NNE,22,0.0,0.0,87,0.00,CLR,,0.00,WeatherDisplay:10.37,2013-08-19 02:07:00,
2013-08-18 22:12:00,67.8,64.1,30.12,NNE,22,0.0,0.0,88,0.00,CLR,,0.00,WeatherDisplay:10.37,2013-08-19 02:12:00,
2013-08-18 22:17:00,67.6,64.0,30.12,NNE,22,0.0,0.0,88,0.00,CLR,,0.00,WeatherDisplay:10.37,2013-08-19 02:17:00,
2013-08-18 22:18:00,65.8,45.0,30.12,NNE,22,0.0,0.0,47,0.00,CLR,CLR,0.00,WeatherDisplay:10.37,2013-08-19 02:18:00,
2013-08-18 22:22:00,67.5,63.8,30.12,NNE,22,0.0,0.0,88,0.00,CLR,,0.00,WeatherDisplay:10.37,2013-08-19 02:22:00,
2013-08-18 22:27:00,67.5,63.8,30.12,NNE,22,0.0,0.0,88,0.00,CLR,,0.00,WeatherDisplay:10.37,2013-08-19 02:27:00,
2013-08-18 22:32:00,67.5,64.1,30.12,NNE,22,0.0,0.0,89,0.00,CLR,,0.00,WeatherDisplay:10.37,2013-08-19 02:32:00,
2013-08-18 22:33:00,65.7,43.7,30.12,NNE,22,0.0,0.0,45,0.00,CLR,CLR,0.00,WeatherDisplay:10.37,2013-08-19 02:33:00,
2013-08-18 22:37:00,67.6,65.5,30.12,West,270,0.0,0.0,93,0.00,CLR,,0.00,WeatherDisplay:10.37,2013-08-19 02:37:00,
2013-08-18 22:42:00,67.1,64.7,30.12,West,270,0.0,0.0,92,0.00,CLR,,0.00,WeatherDisplay:10.37,2013-08-19 02:42:00,
2013-08-18 22:47:00,67.1,64.4,30.12,West,270,0.0,0.0,91,0.00,CLR,,0.00,WeatherDisplay:10.37,2013-08-19 02:47:00,
2013-08-18 22:48:00,65.3,43.4,30.12,NNE,22,0.0,0.0,45,0.00,CLR,CLR,0.00,WeatherDisplay:10.37,2013-08-19 02:48:00,
2013-08-18 22:53:00,67.1,64.1,30.12,West,270,0.0,0.0,90,0.00,CLR,,0.00,WeatherDisplay:10.37,2013-08-19 02:53:00,
2013-08-18 22:58:00,66.9,63.9,30.12,West,270,0.0,0.0,90,0.00,CLR,,0.00,WeatherDisplay:10.37,2013-08-19 02:58:00,
2013-08-18 23:03:00,66.9,63.9,30.12,West,270,0.0,0.0,90,0.00,CLR,,0.00,WeatherDisplay:10.37,2013-08-19 03:03:00,
2013-08-18 23:08:00,66.9,63.9,30.12,West,270,0.0,0.0,90,0.00,CLR,,0.00,WeatherDisplay:10.37,2013-08-19 03:08:00,
2013-08-18 23:13:00,66.9,63.9,30.12,NNE,22,1.6,1.6,90,0.00,CLR,,0.00,WeatherDisplay:10.37,2013-08-19 03:13:00,
2013-08-18 23:18:00,67.1,64.7,30.12,NNE,22,1.4,1.4,92,0.00,CLR,,0.00,WeatherDisplay:10.37,2013-08-19 03:18:00,
2013-08-18 23:23:00,66.9,64.5,30.12,NE,45,1.2,1.4,92,0.00,CLR,,0.00,WeatherDisplay:10.37,2013-08-19 03:23:00,
2013-08-18 23:33:00,65.3,46.2,30.12,NNE,22,0.0,2.0,50,0.00,CLR,CLR,0.00,WeatherDisplay:10.37,2013-08-19 03:33:00,
2013-08-18 23:48:00,64.6,42.7,30.12,NNE,22,0.0,0.0,45,0.00,CLR,CLR,0.00,WeatherDisplay:10.37,2013-08-19 03:48:00,